| time (UTC) | temp F | wind direction | speed MPH | gust MPH | rain 1hr in | rain 24hr in | rain mn in | humidity % | barometer mb |
| 20260503044548 | 44 | 71 | 5.0 | 15.0 | 0.00 | 0.00 | 0.00 | 96 | 1014.4 |
| 20260503043044 | 44 | 38 | 9.0 | 16.0 | 0.00 | 0.00 | 0.00 | 96 | 1014.3 |
| 20260503041550 | 44 | 54 | 5.0 | 14.0 | 0.00 | 0.00 | 0.00 | 96 | 1014.3 |
| 20260503040051 | 45 | 67 | 8.0 | 17.0 | 0.00 | 0.00 | 0.00 | 96 | 1014.4 |
| 20260503034600 | 45 | 58 | 7.0 | 15.0 | 0.00 | 0.00 | 0.00 | 96 | 1014.3 |
| 20260503033055 | 45 | 73 | 2.0 | 13.0 | 0.00 | 0.00 | 0.00 | 97 | 1014.4 |
| 20260503031554 | 45 | 77 | 3.0 | 13.0 | 0.00 | 0.00 | 0.00 | 97 | 1014.4 |
| 20260503030050 | 45 | 96 | 3.0 | 11.0 | 0.00 | 0.00 | 0.00 | 97 | 1014.3 |
| 20260503024552 | 46 | 60 | 4.0 | 9.0 | 0.00 | 0.00 | 0.00 | 97 | 1014.4 |
| 20260503023050 | 46 | 56 | 4.0 | 15.0 | 0.00 | 0.00 | 0.00 | 96 | 1014.3 |
| 20260503021550 | 46 | 84 | 5.0 | 12.0 | 0.00 | 0.00 | 0.00 | 95 | 1014.5 |
| 20260503020056 | 46 | 82 | 6.0 | 17.0 | 0.00 | 0.00 | 0.00 | 95 | 1014.4 |
| 20260503014558 | 46 | 61 | 7.0 | 18.0 | 0.00 | 0.00 | 0.00 | 94 | 1014.5 |
| 20260503013047 | 46 | 59 | 3.0 | 9.0 | 0.00 | 0.00 | 0.00 | 94 | 1014.6 |
| 20260503011552 | 46 | 53 | 3.0 | 13.0 | 0.00 | 0.00 | 0.00 | 94 | 1014.6 |
| 20260503010051 | 46 | 38 | 5.0 | 15.0 | 0.00 | 0.00 | 0.00 | 94 | 1014.6 |
| 20260503004615 | 46 | 80 | 1.0 | 10.0 | 0.00 | 0.00 | 0.00 | 94 | 1014.6 |
| 20260503003055 | 47 | 109 | 6.0 | 11.0 | 0.00 | 0.00 | 0.00 | 95 | 1014.6 |
| 20260503001605 | 47 | 44 | 2.0 | 12.0 | 0.00 | 0.00 | 0.00 | 95 | 1014.8 |
| 20260503000054 | 47 | 59 | 4.0 | 14.0 | 0.00 | 0.00 | 0.00 | 94 | 1015.0 |
| 20260502234550 | 47 | 56 | 5.0 | 11.0 | 0.00 | 0.00 | 0.00 | 94 | 1014.9 |
| 20260502233047 | 47 | 114 | 4.0 | 12.0 | 0.00 | 0.00 | 0.00 | 93 | 1015.0 |
| 20260502231552 | 47 | 69 | 7.0 | 14.0 | 0.00 | 0.00 | 0.00 | 93 | 1014.9 |
| 20260502230046 | 47 | 107 | 2.0 | 9.0 | 0.00 | 0.00 | 0.00 | 92 | 1014.9 |
| 20260502224546 | 47 | 64 | 5.0 | 12.0 | 0.00 | 0.00 | 0.00 | 92 | 1014.9 |
| 20260502223046 | 48 | 39 | 4.0 | 11.0 | 0.00 | 0.00 | 0.00 | 92 | 1014.9 |
| 20260502221550 | 48 | 94 | 5.0 | 12.0 | 0.00 | 0.00 | 0.00 | 92 | 1015.0 |
| 20260502220046 | 48 | 52 | 4.0 | 12.0 | 0.00 | 0.00 | 0.00 | 91 | 1015.0 |
| 20260502214559 | 48 | 70 | 3.0 | 9.0 | 0.00 | 0.00 | 0.00 | 91 | 1015.1 |
| 20260502213047 | 48 | 83 | 5.0 | 10.0 | 0.00 | 0.00 | 0.00 | 91 | 1015.0 |
| 20260502211544 | 48 | 79 | 6.0 | 12.0 | 0.00 | 0.00 | 0.00 | 91 | 1015.1 |
| 20260502210046 | 49 | 68 | 6.0 | 14.0 | 0.00 | 0.00 | 0.00 | 92 | 1015.0 |
| 20260502204545 | 49 | 67 | 6.0 | 13.0 | 0.00 | 0.00 | 0.00 | 92 | 1015.1 |
| 20260502203045 | 49 | 85 | 2.0 | 9.0 | 0.00 | 0.00 | 0.00 | 92 | 1015.0 |
| 20260502201556 | 50 | 87 | 5.0 | 12.0 | 0.00 | 0.00 | 0.00 | 92 | 1015.0 |
| 20260502200047 | 50 | 117 | 4.0 | 9.0 | 0.00 | 0.00 | 0.00 | 92 | 1014.7 |
| 20260502194547 | 50 | 103 | 3.0 | 10.0 | 0.00 | 0.00 | 0.00 | 92 | 1014.6 |
| 20260502193048 | 50 | 99 | 3.0 | 9.0 | 0.00 | 0.00 | 0.00 | 92 | 1014.4 |
| 20260502191549 | 50 | 105 | 3.0 | 12.0 | 0.00 | 0.00 | 0.00 | 91 | 1014.3 |
| 20260502190055 | 51 | 69 | 3.0 | 10.0 | 0.00 | 0.00 | 0.00 | 90 | 1014.2 |
| 20260502184602 | 51 | 58 | 3.0 | 9.0 | 0.00 | 0.01 | 0.00 | 89 | 1014.2 |
| 20260502183051 | 51 | 96 | 3.0 | 10.0 | 0.00 | 0.01 | 0.00 | 87 | 1014.2 |
| 20260502181551 | 51 | 78 | 5.0 | 12.0 | 0.00 | 0.01 | 0.00 | 85 | 1014.4 |
| 20260502163056 | 54 | 32 | 5.0 | 11.0 | 0.00 | 0.01 | 0.00 | 86 | 1013.8 |
| 20260502161551 | 54 | 19 | 3.0 | 9.0 | 0.00 | 0.01 | 0.00 | 85 | 1013.7 |
| 20260502151553 | 59 | 169 | 0.0 | 13.0 | 0.00 | 0.01 | 0.00 | 75 | 1013.7 |
| 20260502123100 | 65 | 169 | 7.0 | 12.0 | 0.00 | 0.01 | 0.00 | 72 | 1013.3 |
| 20260502121551 | 64 | 0 | 2.0 | 6.0 | 0.00 | 0.01 | 0.00 | 71 | 1013.3 |
| 20260502114547 | 64 | 270 | 2.0 | 7.0 | 0.00 | 0.01 | 0.00 | 67 | 1013.5 |
| 20260502113044 | 63 | 194 | 3.0 | 9.0 | 0.00 | 0.01 | 0.00 | 75 | 1013.6 |
| 20260502111551 | 63 | 281 | 3.0 | 10.0 | 0.00 | 0.01 | 0.00 | 76 | 1013.7 |
| 20260502110056 | 61 | 269 | 5.0 | 9.0 | 0.00 | 0.01 | 0.00 | 77 | 1013.9 |
| 20260502104551 | 60 | 211 | 4.0 | 11.0 | 0.00 | 0.01 | 0.00 | 81 | 1014.0 |
| 20260502103052 | 59 | 360 | 3.0 | 9.0 | 0.00 | 0.01 | 0.00 | 82 | 1014.1 |
| 20260502101603 | 58 | 360 | 3.0 | 11.0 | 0.00 | 0.01 | 0.00 | 84 | 1014.0 |
| 20260502100114 | 58 | 257 | 5.0 | 11.0 | 0.00 | 0.01 | 0.00 | 82 | 1014.0 |
| 20260502070052 | 51 | 360 | 9.0 | 14.0 | 0.00 | 0.01 | 0.00 | 95 | 1013.6 |
| 20260502064554 | 51 | 263 | 9.0 | 13.0 | 0.00 | 0.01 | 0.00 | 96 | 1013.6 |
| 20260502063050 | 50 | 360 | 8.0 | 14.0 | 0.00 | 0.01 | 0.00 | 96 | 1013.7 |
| 20260502061546 | 49 | 249 | 8.0 | 15.0 | 0.00 | 0.01 | 0.00 | 97 | 1013.7 |
| 20260502060054 | 49 | 214 | 6.0 | 13.0 | 0.00 | 0.01 | 0.00 | 97 | 1013.7 |
| 20260502054553 | 49 | 292 | 6.0 | 13.0 | 0.00 | 0.01 | 0.00 | 97 | 1013.6 |
| 20260502053107 | 48 | 360 | 7.0 | 13.0 | 0.00 | 0.01 | 0.00 | 97 | 1013.5 |
| 20260502051547 | 48 | 207 | 6.0 | 11.0 | 0.00 | 0.01 | 0.00 | 97 | 1013.4 |
| 20260502050052 | 48 | 360 | 4.0 | 10.0 | 0.00 | 0.01 | 0.00 | 97 | 1013.3 |